Torna al catalogo

FENGYUN 1C DEB

AttivoSSO
NORAD 30335·DEBRIS·🇨🇳 China

Lanciato May 10, 1999 da Taiyuan Satellite Launch Center

Loading…

Prossimi Passaggi (prossime 24 ore)

TLE

AggiornatoSource: Space-Track

Epoca: Sep 14, 2026, 10:24 UTC

1 30335U 99025AAW 26257.43358431  .00000551  00000-0  36187-3 0  9991
2 30335  98.9264 247.3959 0136415  85.8723  67.7810 14.01508249  4496

Traccia FENGYUN 1C DEB in tempo reale con AllMySat

Download on the App Store